Location: Il Ritiro
(43.4167°N, 13.1333°E)
Time: 01:03:19
(UTC+00:00)

BREEZE-M DEB (TANK) - Pass Details

Date: 05 July 2020
Orbit: 328 x 12049 km, 49.6° (Epoch: 11 August)

Event Time Altitude Azimuth Distance (km) Brightness Sun altitude
Rises 22:35:28 0° 296° (WNW) 3,200 6.5 -23.4°
Reaches altitude 10° 22:38:30 10° 302° (WNW) 1,682 5.1 -23.5°
Enters shadow 22:40:33 30° 322° (NW) 712 3.2 -23.5°
